Regional Weather Roundup
Issued by NWS

Home | Current Version | Previous Version | Graphics & Text | Print | Product List | Glossary On
Versions: 1 2 3 4 5 6 7 8 9 10 11 12 13 14 15 16 17 18 19 20 21 22 23 24 25 26 27 28 29 30 31 32 33 34 35 36 37 38 39 40 41 42 43 44 45 46 47 48 49 50
000
ASUS45 KBOI 052010
RWRID

IDAHO REGIONAL WEATHER ROUNDUP
NATIONAL WEATHER SERVICE BOISE ID
100 PM MST FRI FEB 05 2016

NOTE: "FAIR" INDICATES FEW OR NO CLOUDS BELOW 12000 FEET
WITH NO SIGNIFICANT WEATHER AND/OR OBSTRUCTIONS TO VISIBILITY

IDZ012-014-052100-
SOUTHWEST IDAHO


CITY           SKY/WX    TMP DP  RH WIND       PRES   REMARKS
BOISE          SUNNY     40  34  79 SE8       30.51F WCI  34
CALDWELL       FOG       34  33  96 MISG      30.54F VSB 1/4
MOUNTAIN HOME  SUNNY     39  39 100 E12       30.52F WCI  31
$$

IDZ016-017-052100-
SOUTHCENTRAL IDAHO


CITY           SKY/WX    TMP DP  RH WIND       PRES   REMARKS
BURLEY         CLOUDY    32  26  78 NE7       30.51S WCI  26
JEROME         CLOUDY    28  25  88 NE16      30.51F FOG     WCI  16
TWIN FALLS     SUNNY     37  30  75 NE6       30.51F WCI  32
$$

IDZ019>023-052100-
SOUTHEAST IDAHO


CITY           SKY/WX    TMP DP  RH WIND       PRES   REMARKS
IDAHO FALLS    CLOUDY    18  15  88 N7        30.54F FOG     WCI   9
POCATELLO      CLOUDY    22  19  89 NE7       30.55S WCI  13
REXBURG        CLOUDY    20  18  92 CALM      30.52F FOG
$$

IDZ006-010-011-018-031-032-052100-
CENTRAL IDAHO MOUNTAINS


CITY           SKY/WX    TMP DP  RH WIND       PRES   REMARKS
MCCALL         MOSUNNY   28  26  92 SW3       30.44F
HAILEY         MOSUNNY   23  18  80 SE12      30.50S WCI  12
STANLEY          N/A     30  16  56 CALM      30.43F
SALMON         CLOUDY    27  16  63 CALM      30.49F
CHALLIS        SUNNY     25  16  68 NW3       30.45F
$$

IDZ002-004-006-007-026-052100-
NORTHERN IDAHO


CITY           SKY/WX    TMP DP  RH WIND       PRES   REMARKS
LEWISTON       SUNNY     50  34  54 SE18G30   30.35F
LOWELL           N/A     47  37  68 CALM      30.45F
COEUR D`ALENE  PTSUNNY   45  36  70 S8        30.30F
MULLAN PASS    HAZE      31  26  82 S10       30.27F VSB 1/4 WCI  22
$$




USA.gov is the U.S. government's official web portal to all federal, state and local government web resources and services.